Погода в Сан-Гонсалу

Бразилия     22°49′23″S   43°02′43″W
темп.,
°C
ветер,
м/с
пор.,
м/с
влажн.,
%
обл.,
%
осадки,
мм/ч
давл.,
гПа
погр.,
м
26 февраля, пт
пт2600:00+24ссв1278100 0.6 1012182
03:00+24ссв0178100 0.6 1011148
06:00+23с1182100 0.1 1011176
09:00+27сз016489 0.1 1013494
12:00+29юз2255100 0.1 1013869
15:00+29ююв3357100 0.4 1011943
18:00+26ююв2269100 0.4 1012353
21:00+24ссв2383100 2.1 1014202
27 февраля, сб
сб2700:00+23св1289100 2.4 1014186
03:00+23з1187100 5.4 1013171
06:00+23всв1287100 0.1 1014157
09:00+27св1172100 0.1 1015485
12:00+29ююз1161100 0.0 1015740
15:00+31вюв225295 0.0 10131254
18:00+28всв236864 0.1 1013420
21:00+26св127982 0.2 1014206
28 февраля, вс
вс2800:00+24св238552 0.2 1015148
03:00+23св228165 0.3 1013133
06:00+22св128065 0.0 1014125
09:00+28св116180 0.0 1015414
12:00+32в124381 0.0 1015996
15:00+33св124390 0.0 10121415
18:00+27в367371 0.5 1012365
21:00+25в368186 0.6 1014288
1 марта, пн
пн100:00+24св248394 0.1 1014178
03:00+23св238294 0.1 1013138
06:00+22св1279100 0.0 1014116
09:00+28св115899 0.0 1014395
12:00+33вюв114085 0.0 1014951
15:00+33св124391 0.0 10111385
18:00+28в376866 0.0 1011396
21:00+25всв247683 0.0 1013198
2 марта, вт
вт200:00+24св237695 0.0 1014138
03:00+23св227660 0.0 101396
06:00+23св127543 0.0 101493
09:00+29ссв115629 0.0 1015420
12:00+34вюв014384 0.0 10151011
15:00+35юв224092 0.0 10121837
18:00+29всв366359 0.0 1012355
21:00+26св347042 0.0 1014172